| time (UTC) | temp F | wind direction | speed knots | gust knots | rain 1hr in | rain 24hr in | rain mn in | humidity % | barometer mb |
| 20260510194041 | 93 | 165 | 4.3 | 6.1 | 0.00 | 0.00 | 0.00 | 55 | 1016.2 |
| 20260510193536 | 91 | 221 | 4.3 | 7.0 | 0.00 | 0.00 | 0.00 | 56 | 1016.3 |
| 20260510193032 | 90 | 205 | 4.3 | 6.1 | 0.00 | 0.00 | 0.00 | 58 | 1016.2 |
| 20260510192532 | 91 | 143 | 3.5 | 4.3 | 0.00 | 0.00 | 0.00 | 58 | 1016.3 |
| 20260510192028 | 89 | 87 | 1.7 | 2.6 | 0.00 | 0.00 | 0.00 | 59 | 1016.3 |
| 20260510191525 | 88 | 198 | 3.5 | 5.2 | 0.00 | 0.00 | 0.00 | 62 | 1016.1 |
| 20260510191022 | 88 | 2 | 2.6 | 2.6 | 0.00 | 0.00 | 0.00 | 63 | 1016.5 |
| 20260510190519 | 88 | 219 | 6.1 | 7.8 | 0.00 | 0.00 | 0.00 | 62 | 1016.6 |
| 20260510190016 | 88 | 102 | 2.6 | 2.6 | 0.00 | 0.00 | 0.00 | 64 | 1016.3 |
| 20260510185513 | 92 | 177 | 4.3 | 6.1 | 0.00 | 0.00 | 0.00 | 59 | 1016.5 |
| 20260510185010 | 91 | 260 | 4.3 | 5.2 | 0.00 | 0.00 | 0.00 | 56 | 1016.3 |
| 20260510184508 | 91 | 152 | 4.3 | 6.1 | 0.00 | 0.00 | 0.00 | 55 | 1016.5 |
| 20260510184003 | 91 | 357 | 2.6 | 2.6 | 0.00 | 0.00 | 0.00 | 56 | 1016.2 |
| 20260510183458 | 91 | 270 | 2.6 | 4.3 | 0.00 | 0.00 | 0.00 | 55 | 1016.5 |
| 20260510182954 | 93 | 42 | 0.9 | 1.7 | 0.00 | 0.00 | 0.00 | 52 | 1016.2 |
| 20260510182450 | 92 | 278 | 4.3 | 4.3 | 0.00 | 0.00 | 0.00 | 54 | 1016.1 |
| 20260510181945 | 93 | 258 | 5.2 | 7.0 | 0.00 | 0.00 | 0.00 | 53 | 1016.2 |
| 20260510181444 | 93 | 252 | 3.5 | 5.2 | 0.00 | 0.00 | 0.00 | 54 | 1016.4 |
| 20260510180939 | 93 | 14 | 2.6 | 2.6 | 0.00 | 0.00 | 0.00 | 55 | 1016.2 |
| 20260510180437 | 92 | 26 | 2.6 | 4.3 | 0.00 | 0.00 | 0.00 | 58 | 1016.1 |
| 20260510175934 | 92 | 90 | 3.5 | 4.3 | 0.00 | 0.00 | 0.00 | 58 | 1016.4 |
| 20260510175430 | 93 | 146 | 4.3 | 7.0 | 0.00 | 0.00 | 0.00 | 56 | 1016.4 |
| 20260510174925 | 93 | 266 | 2.6 | 4.3 | 0.00 | 0.00 | 0.00 | 56 | 1016.5 |
| 20260510174424 | 92 | 168 | 3.5 | 5.2 | 0.00 | 0.00 | 0.00 | 56 | 1016.8 |
| 20260510173920 | 91 | 192 | 4.3 | 5.2 | 0.00 | 0.00 | 0.00 | 58 | 1016.8 |
| 20260510173415 | 91 | 256 | 4.3 | 5.2 | 0.00 | 0.00 | 0.00 | 59 | 1016.7 |
| 20260510172912 | 91 | 143 | 2.6 | 2.6 | 0.00 | 0.00 | 0.00 | 61 | 1016.7 |
| 20260510172409 | 91 | 197 | 6.1 | 7.8 | 0.00 | 0.00 | 0.00 | 59 | 1016.8 |
| 20260510171904 | 92 | 220 | 4.3 | 5.2 | 0.00 | 0.00 | 0.00 | 60 | 1017.0 |
| 20260510171402 | 91 | 68 | 3.5 | 5.2 | 0.00 | 0.00 | 0.00 | 60 | 1017.0 |
| 20260510170859 | 90 | 212 | 4.3 | 5.2 | 0.00 | 0.00 | 0.00 | 60 | 1017.1 |
| 20260510170355 | 93 | 12 | 1.7 | 2.6 | 0.00 | 0.00 | 0.00 | 58 | 1016.9 |
| 20260510165850 | 91 | 256 | 2.6 | 2.6 | 0.00 | 0.00 | 0.00 | 63 | 1017.2 |
| 20260510165347 | 92 | 202 | 3.5 | 7.0 | 0.00 | 0.00 | 0.00 | 63 | 1017.2 |
| 20260510164844 | 92 | 82 | 0.9 | 1.7 | 0.00 | 0.00 | 0.00 | 61 | 1017.3 |
| 20260510164342 | 90 | 119 | 0.9 | 2.6 | 0.00 | 0.00 | 0.00 | 65 | 1017.5 |
| 20260510163841 | 89 | 95 | 3.5 | 4.3 | 0.00 | 0.00 | 0.00 | 66 | 1017.7 |
| 20260510163338 | 89 | 314 | 2.6 | 2.6 | 0.00 | 0.00 | 0.00 | 66 | 1017.8 |
| 20260510162832 | 89 | 93 | 0.9 | 1.7 | 0.00 | 0.00 | 0.00 | 67 | 1017.6 |
| 20260510162330 | 89 | 182 | 3.5 | 4.3 | 0.00 | 0.00 | 0.00 | 65 | 1017.9 |
| 20260510161825 | 90 | 115 | 1.7 | 2.6 | 0.00 | 0.00 | 0.00 | 66 | 1017.9 |
| 20260510161321 | 89 | 24 | 1.7 | 2.6 | 0.00 | 0.00 | 0.00 | 66 | 1017.9 |
| 20260510160818 | 89 | 250 | 3.5 | 5.2 | 0.00 | 0.00 | 0.00 | 68 | 1017.8 |
| 20260510160315 | 90 | 359 | 2.6 | 5.2 | 0.00 | 0.00 | 0.00 | 65 | 1018.0 |
| 20260510155809 | 90 | 182 | 2.6 | 4.3 | 0.00 | 0.00 | 0.00 | 68 | 1017.8 |
| 20260510155306 | 89 | 229 | 4.3 | 7.0 | 0.00 | 0.00 | 0.00 | 68 | 1018.0 |
| 20260510154802 | 88 | 234 | 2.6 | 4.3 | 0.00 | 0.00 | 0.00 | 70 | 1017.8 |
| 20260510154258 | 87 | 190 | 2.6 | 4.3 | 0.00 | 0.00 | 0.00 | 72 | 1017.8 |
| 20260510153752 | 87 | 57 | 0.9 | 0.9 | 0.00 | 0.00 | 0.00 | 71 | 1018.0 |
| 20260510153248 | 88 | 198 | 4.3 | 6.1 | 0.00 | 0.00 | 0.00 | 70 | 1017.8 |
| 20260510152745 | 88 | 210 | 2.6 | 4.3 | 0.00 | 0.00 | 0.00 | 70 | 1017.9 |
| 20260510152242 | 87 | 154 | 2.6 | 2.6 | 0.00 | 0.00 | 0.00 | 71 | 1017.8 |
| 20260510151738 | 87 | 190 | 3.5 | 6.1 | 0.00 | 0.00 | 0.00 | 72 | 1017.9 |
| 20260510151237 | 86 | 119 | 2.6 | 2.6 | 0.00 | 0.00 | 0.00 | 73 | 1017.9 |
| 20260510150732 | 88 | 0 | 1.7 | 2.6 | 0.00 | 0.00 | 0.00 | 70 | 1017.8 |
| 20260510150228 | 88 | 135 | 2.6 | 2.6 | 0.00 | 0.00 | 0.00 | 72 | 1017.7 |
| 20260510145724 | 86 | 242 | 2.6 | 5.2 | 0.00 | 0.00 | 0.00 | 73 | 1017.9 |
| 20260510145221 | 86 | 203 | 4.3 | 6.1 | 0.00 | 0.00 | 0.00 | 73 | 1017.7 |
| 20260510144717 | 86 | 212 | 2.6 | 2.6 | 0.00 | 0.00 | 0.00 | 73 | 1017.8 |
| 20260510144214 | 86 | 162 | 5.2 | 7.0 | 0.00 | 0.00 | 0.00 | 74 | 1017.9 |
| 20260510143708 | 86 | 8 | 2.6 | 4.3 | 0.00 | 0.00 | 0.00 | 74 | 1017.7 |
| 20260510143205 | 85 | 131 | 2.6 | 4.3 | 0.00 | 0.00 | 0.00 | 76 | 1017.6 |
| 20260510142701 | 86 | 266 | 3.5 | 4.3 | 0.00 | 0.00 | 0.00 | 74 | 1017.6 |
| 20260510142158 | 84 | 129 | 2.6 | 2.6 | 0.00 | 0.00 | 0.00 | 76 | 1017.5 |
| 20260510141655 | 84 | 157 | 2.6 | 5.2 | 0.00 | 0.00 | 0.00 | 77 | 1017.4 |
| 20260510141154 | 84 | 186 | 4.3 | 7.0 | 0.00 | 0.00 | 0.00 | 77 | 1017.6 |
| 20260510140650 | 83 | 90 | 1.7 | 2.6 | 0.00 | 0.00 | 0.00 | 79 | 1017.5 |
| 20260510140149 | 84 | 199 | 4.3 | 7.8 | 0.00 | 0.00 | 0.00 | 78 | 1017.6 |
| 20260510135644 | 83 | 114 | 2.6 | 4.3 | 0.00 | 0.00 | 0.00 | 78 | 1017.7 |
| 20260510135141 | 84 | 193 | 3.5 | 4.3 | 0.00 | 0.00 | 0.00 | 78 | 1017.4 |
| 20260510134638 | 82 | 218 | 4.3 | 5.2 | 0.00 | 0.00 | 0.00 | 81 | 1017.2 |
| 20260510134135 | 83 | 185 | 4.3 | 5.2 | 0.00 | 0.00 | 0.00 | 80 | 1017.5 |
| 20260510133631 | 82 | 120 | 1.7 | 1.7 | 0.00 | 0.00 | 0.00 | 81 | 1017.4 |
| 20260510133126 | 82 | 109 | 3.5 | 4.3 | 0.00 | 0.00 | 0.00 | 82 | 1017.4 |
| 20260510132624 | 81 | 114 | 2.6 | 4.3 | 0.00 | 0.00 | 0.00 | 84 | 1017.4 |
| 20260510132121 | 81 | 89 | 0.9 | 0.9 | 0.00 | 0.00 | 0.00 | 84 | 1017.4 |
| 20260510131618 | 79 | 91 | 1.7 | 1.7 | 0.00 | 0.00 | 0.00 | 86 | 1017.4 |
| 20260510131115 | 79 | 132 | 2.6 | 4.3 | 0.00 | 0.00 | 0.00 | 87 | 1017.3 |
| 20260510130612 | 79 | 71 | 0.0 | 0.9 | 0.00 | 0.00 | 0.00 | 87 | 1017.4 |
| 20260510130110 | 79 | 118 | 2.6 | 2.6 | 0.00 | 0.00 | 0.00 | 88 | 1017.5 |
| 20260510125606 | 78 | 64 | 0.9 | 0.9 | 0.00 | 0.00 | 0.00 | 88 | 1017.3 |
| 20260510125102 | 78 | 120 | 1.7 | 2.6 | 0.00 | 0.00 | 0.00 | 90 | 1017.2 |
| 20260510124558 | 77 | 72 | 0.9 | 1.7 | 0.00 | 0.00 | 0.00 | 90 | 1017.2 |
| 20260510124056 | 77 | 98 | 1.7 | 1.7 | 0.00 | 0.00 | 0.00 | 91 | 1017.3 |
| 20260510123551 | 77 | 75 | 0.9 | 1.7 | 0.00 | 0.00 | 0.00 | 92 | 1017.2 |
| 20260510123047 | 76 | 104 | 0.9 | 1.7 | 0.00 | 0.00 | 0.00 | 93 | 1017.2 |
| 20260510122543 | 76 | 77 | 0.9 | 0.9 | 0.00 | 0.00 | 0.00 | 93 | 1017.0 |
| 20260510122039 | 75 | 37 | 0.9 | 0.9 | 0.00 | 0.00 | 0.00 | 94 | 1016.9 |
| 20260510121537 | 75 | 123 | 2.6 | 2.6 | 0.00 | 0.00 | 0.00 | 94 | 1017.1 |
| 20260510121034 | 75 | 102 | 0.9 | 0.9 | 0.00 | 0.00 | 0.00 | 95 | 1017.0 |
| 20260510120531 | 75 | 82 | 0.9 | 0.9 | 0.00 | 0.00 | 0.00 | 95 | 1016.9 |
| 20260510120027 | 75 | 78 | 0.0 | 0.0 | 0.00 | 0.00 | 0.00 | 95 | 1016.7 |
| 20260510115524 | 75 | 68 | 0.0 | 0.0 | 0.00 | 0.00 | 0.00 | 96 | 1016.8 |
| 20260510115020 | 74 | 77 | 0.0 | 0.0 | 0.00 | 0.00 | 0.00 | 97 | 1016.7 |
| 20260510114516 | 73 | 75 | 0.0 | 0.0 | 0.00 | 0.00 | 0.00 | 98 | 1016.5 |
| 20260510114013 | 73 | 85 | 0.0 | 0.0 | 0.00 | 0.00 | 0.00 | 98 | 1016.4 |
| 20260510113508 | 73 | 83 | 0.0 | 0.0 | 0.00 | 0.00 | 0.00 | 98 | 1016.3 |
| 20260510113006 | 73 | 83 | 0.9 | 0.9 | 0.00 | 0.00 | 0.00 | 99 | 1016.2 |
| 20260510112502 | 73 | 75 | 0.0 | 0.0 | 0.00 | 0.00 | 0.00 | 99 | 1016.1 |
| 20260510111959 | 73 | 79 | 0.0 | 0.0 | 0.00 | 0.00 | 0.00 | 99 | 1016.0 |
| 20260510111455 | 73 | 74 | 0.0 | 0.0 | 0.00 | 0.00 | 0.00 | 99 | 1015.8 |
| 20260510110951 | 72 | 80 | 0.0 | 0.0 | 0.00 | 0.00 | 0.00 | 99 | 1015.7 |
| 20260510110448 | 72 | 70 | 0.0 | 0.0 | 0.00 | 0.00 | 0.00 | 99 | 1015.6 |
| 20260510105944 | 72 | 70 | 0.0 | 0.0 | 0.00 | 0.00 | 0.00 | 99 | 1015.5 |
| 20260510105439 | 72 | 73 | 0.0 | 0.0 | 0.00 | 0.00 | 0.00 | 99 | 1015.6 |
| 20260510104934 | 72 | 73 | 0.0 | 0.0 | 0.00 | 0.00 | 0.00 | 99 | 1015.5 |
| 20260510104431 | 72 | 73 | 0.0 | 0.0 | 0.00 | 0.00 | 0.00 | 99 | 1015.3 |
| 20260510103928 | 72 | 71 | 0.0 | 0.0 | 0.00 | 0.00 | 0.00 | 99 | 1015.5 |
| 20260510103426 | 72 | 69 | 0.0 | 0.0 | 0.00 | 0.00 | 0.00 | 99 | 1015.5 |
| 20260510102920 | 72 | 100 | 0.0 | 0.9 | 0.00 | 0.00 | 0.00 | 99 | 1015.5 |
| 20260510102416 | 72 | 77 | 0.0 | 0.0 | 0.00 | 0.00 | 0.00 | 99 | 1015.1 |
| 20260510101914 | 73 | 78 | 0.0 | 0.0 | 0.00 | 0.00 | 0.00 | 99 | 1015.0 |
| 20260510101412 | 73 | 78 | 0.0 | 0.0 | 0.00 | 0.00 | 0.00 | 98 | 1015.1 |
| 20260510100908 | 73 | 75 | 0.0 | 0.0 | 0.00 | 0.00 | 0.00 | 98 | 1014.9 |
| 20260510100400 | 73 | 77 | 0.0 | 0.0 | 0.00 | 0.00 | 0.00 | 98 | 1014.8 |
| 20260510095855 | 73 | 83 | 0.0 | 0.0 | 0.00 | 0.00 | 0.00 | 98 | 1014.8 |
| 20260510095345 | 73 | 77 | 0.0 | 0.0 | 0.00 | 0.00 | 0.00 | 98 | 1014.8 |
| 20260510094845 | 73 | 76 | 0.0 | 0.0 | 0.00 | 0.00 | 0.00 | 98 | 1014.7 |
| 20260510094340 | 73 | 78 | 0.0 | 0.0 | 0.00 | 0.00 | 0.00 | 98 | 1014.8 |
| 20260510093837 | 73 | 71 | 0.0 | 0.0 | 0.00 | 0.00 | 0.00 | 98 | 1014.8 |
| 20260510093332 | 73 | 80 | 0.0 | 0.0 | 0.00 | 0.00 | 0.00 | 98 | 1014.7 |
| 20260510092829 | 73 | 72 | 0.0 | 0.0 | 0.00 | 0.00 | 0.00 | 98 | 1014.7 |
| 20260510092325 | 73 | 116 | 0.9 | 0.9 | 0.00 | 0.00 | 0.00 | 98 | 1014.7 |
| 20260510091821 | 74 | 100 | 0.9 | 0.9 | 0.00 | 0.00 | 0.00 | 98 | 1014.6 |
| 20260510091318 | 74 | 113 | 2.6 | 4.3 | 0.00 | 0.00 | 0.00 | 98 | 1014.6 |
| 20260510090814 | 74 | 190 | 0.9 | 1.7 | 0.00 | 0.00 | 0.00 | 98 | 1014.4 |
| 20260510090311 | 74 | 87 | 0.9 | 0.9 | 0.00 | 0.00 | 0.00 | 98 | 1014.7 |
| 20260510085807 | 74 | 84 | 0.9 | 0.9 | 0.00 | 0.00 | 0.00 | 98 | 1014.7 |
| 20260510085301 | 74 | 74 | 0.9 | 0.9 | 0.00 | 0.00 | 0.00 | 98 | 1014.4 |
| 20260510084757 | 74 | 90 | 0.9 | 1.7 | 0.00 | 0.00 | 0.00 | 98 | 1014.4 |
| 20260510084254 | 74 | 73 | 0.0 | 0.9 | 0.00 | 0.00 | 0.00 | 98 | 1014.3 |
| 20260510083751 | 74 | 69 | 0.0 | 0.9 | 0.00 | 0.00 | 0.00 | 98 | 1014.0 |
| 20260510083248 | 74 | 65 | 1.7 | 2.6 | 0.00 | 0.00 | 0.00 | 98 | 1014.1 |
| 20260510082744 | 74 | 72 | 0.0 | 0.0 | 0.00 | 0.00 | 0.00 | 98 | 1014.2 |
| 20260510082240 | 74 | 190 | 2.6 | 2.6 | 0.00 | 0.00 | 0.00 | 98 | 1014.4 |
| 20260510081739 | 74 | 69 | 0.0 | 0.0 | 0.00 | 0.00 | 0.00 | 98 | 1014.1 |
| 20260510081236 | 74 | 89 | 0.9 | 0.9 | 0.00 | 0.00 | 0.00 | 98 | 1014.2 |
| 20260510080731 | 74 | 114 | 2.6 | 2.6 | 0.00 | 0.00 | 0.00 | 98 | 1014.2 |
| 20260510080227 | 74 | 74 | 0.9 | 0.9 | 0.00 | 0.00 | 0.00 | 98 | 1014.3 |
| 20260510075724 | 74 | 112 | 1.7 | 1.7 | 0.00 | 0.00 | 0.00 | 98 | 1014.3 |
| 20260510075221 | 74 | 75 | 0.9 | 2.6 | 0.00 | 0.00 | 0.00 | 98 | 1014.2 |
| 20260510074719 | 73 | 82 | 0.0 | 0.0 | 0.00 | 0.00 | 0.00 | 98 | 1014.3 |
| 20260510074215 | 73 | 80 | 0.0 | 0.9 | 0.00 | 0.00 | 0.00 | 98 | 1014.2 |
| 20260510073711 | 73 | 83 | 2.6 | 2.6 | 0.00 | 0.00 | 0.00 | 98 | 1014.6 |
| 20260510073207 | 73 | 80 | 0.9 | 0.9 | 0.00 | 0.00 | 0.00 | 98 | 1014.4 |
| 20260510072703 | 73 | 85 | 0.0 | 1.7 | 0.00 | 0.00 | 0.00 | 98 | 1014.5 |
| 20260510072200 | 73 | 76 | 0.0 | 0.0 | 0.00 | 0.00 | 0.00 | 98 | 1014.5 |
| 20260510071656 | 73 | 89 | 0.0 | 0.0 | 0.00 | 0.00 | 0.00 | 98 | 1014.6 |
| 20260510071153 | 73 | 70 | 0.9 | 0.9 | 0.00 | 0.00 | 0.00 | 99 | 1014.6 |
| 20260510070651 | 73 | 84 | 0.0 | 0.0 | 0.00 | 0.00 | 0.00 | 99 | 1014.5 |
| 20260510070148 | 73 | 74 | 0.0 | 0.0 | 0.00 | 0.00 | 0.00 | 99 | 1014.8 |
| 20260510065643 | 73 | 75 | 0.9 | 0.9 | 0.00 | 0.00 | 0.00 | 99 | 1014.7 |
| 20260510065139 | 73 | 86 | 0.9 | 0.9 | 0.00 | 0.00 | 0.00 | 99 | 1014.7 |
| 20260510064636 | 73 | 80 | 0.9 | 1.7 | 0.00 | 0.00 | 0.00 | 99 | 1014.6 |
| 20260510064133 | 73 | 72 | 0.0 | 0.0 | 0.00 | 0.00 | 0.00 | 99 | 1014.7 |
| 20260510063630 | 73 | 72 | 0.0 | 0.0 | 0.00 | 0.00 | 0.00 | 99 | 1015.0 |
| 20260510063127 | 73 | 73 | 0.0 | 0.0 | 0.00 | 0.00 | 0.00 | 99 | 1015.1 |
| 20260510062623 | 73 | 85 | 1.7 | 1.7 | 0.00 | 0.00 | 0.00 | 99 | 1015.3 |
| 20260510062119 | 73 | 91 | 0.0 | 0.0 | 0.00 | 0.00 | 0.00 | 99 | 1015.3 |
| 20260510061615 | 73 | 78 | 0.0 | 0.0 | 0.00 | 0.00 | 0.00 | 99 | 1015.4 |
| 20260510061112 | 73 | 69 | 0.0 | 0.0 | 0.00 | 0.00 | 0.00 | 99 | 1015.4 |
| 20260510060608 | 73 | 65 | 0.0 | 0.0 | 0.00 | 0.00 | 0.00 | 99 | 1015.4 |
| 20260510060105 | 73 | 60 | 0.0 | 0.0 | 0.00 | 0.00 | 0.00 | 99 | 1015.2 |
| 20260510055601 | 73 | 71 | 0.0 | 0.0 | 0.00 | 0.00 | 0.00 | 99 | 1015.4 |
| 20260510055059 | 73 | 68 | 0.0 | 0.0 | 0.00 | 0.00 | 0.00 | 98 | 1015.6 |
| 20260510054555 | 73 | 91 | 0.0 | 0.9 | 0.00 | 0.00 | 0.00 | 98 | 1015.5 |
| 20260510054050 | 73 | 69 | 0.0 | 0.0 | 0.00 | 0.00 | 0.00 | 98 | 1015.8 |
| 20260510053549 | 73 | 67 | 0.0 | 0.0 | 0.00 | 0.00 | 0.00 | 98 | 1015.7 |
| 20260510053047 | 73 | 67 | 0.0 | 0.0 | 0.00 | 0.00 | 0.00 | 98 | 1015.8 |
| 20260510052543 | 73 | 67 | 0.0 | 0.0 | 0.00 | 0.00 | 0.00 | 97 | 1015.6 |
| 20260510052039 | 73 | 70 | 0.0 | 0.0 | 0.00 | 0.00 | 0.00 | 97 | 1015.5 |
| 20260510051535 | 73 | 70 | 0.0 | 0.0 | 0.00 | 0.00 | 0.00 | 97 | 1015.9 |
| 20260510051031 | 73 | 73 | 0.0 | 0.0 | 0.00 | 0.00 | 0.00 | 97 | 1016.0 |
| 20260510050529 | 74 | 76 | 0.0 | 0.0 | 0.00 | 0.00 | 0.00 | 96 | 1016.2 |
| 20260510050026 | 74 | 71 | 0.0 | 0.0 | 0.00 | 0.00 | 0.00 | 96 | 1016.0 |
| 20260510045523 | 74 | 70 | 0.0 | 0.0 | 0.00 | 0.00 | 0.00 | 96 | 1016.0 |
| 20260510045019 | 74 | 76 | 0.0 | 0.0 | 0.00 | 0.00 | 0.00 | 95 | 1016.1 |
| 20260510044516 | 74 | 90 | 0.0 | 0.0 | 0.00 | 0.00 | 0.00 | 95 | 1016.3 |
| 20260510044013 | 74 | 73 | 0.0 | 0.0 | 0.00 | 0.00 | 0.00 | 94 | 1016.2 |
| 20260510043508 | 74 | 76 | 0.0 | 0.0 | 0.00 | 0.00 | 0.00 | 93 | 1016.1 |
| 20260510043004 | 74 | 67 | 0.0 | 0.0 | 0.00 | 0.00 | 0.00 | 93 | 1016.3 |
| 20260510042458 | 74 | 67 | 0.0 | 0.0 | 0.00 | 0.00 | 0.00 | 93 | 1016.4 |
| 20260510041953 | 74 | 68 | 0.0 | 0.0 | 0.00 | 0.00 | 0.00 | 93 | 1016.2 |
| 20260510041450 | 73 | 74 | 0.0 | 0.0 | 0.00 | 0.00 | 0.00 | 92 | 1016.3 |
| 20260510040948 | 73 | 73 | 0.0 | 0.0 | 0.00 | 0.00 | 0.00 | 92 | 1016.3 |
| 20260510040444 | 73 | 72 | 0.0 | 0.0 | 0.00 | 0.00 | 0.00 | 92 | 1016.4 |
| 20260510035940 | 73 | 73 | 0.0 | 0.0 | 0.00 | 0.00 | 0.00 | 92 | 1016.3 |
| 20260510035437 | 73 | 65 | 0.0 | 0.0 | 0.00 | 0.00 | 0.00 | 91 | 1016.4 |
| 20260510034937 | 73 | 64 | 0.0 | 0.0 | 0.00 | 0.00 | 0.00 | 92 | 1016.3 |
| 20260510034436 | 73 | 68 | 0.0 | 0.0 | 0.00 | 0.00 | 0.00 | 93 | 1016.5 |
| 20260510033932 | 73 | 74 | 0.0 | 0.0 | 0.00 | 0.00 | 0.00 | 93 | 1016.5 |
| 20260510033428 | 73 | 70 | 0.0 | 0.0 | 0.00 | 0.00 | 0.00 | 93 | 1016.3 |
| 20260510032925 | 73 | 70 | 0.0 | 0.0 | 0.00 | 0.00 | 0.00 | 92 | 1016.5 |
| 20260510032422 | 73 | 70 | 0.0 | 0.0 | 0.00 | 0.00 | 0.00 | 92 | 1016.2 |
| 20260510031917 | 73 | 74 | 0.0 | 0.0 | 0.00 | 0.00 | 0.00 | 92 | 1016.0 |
| 20260510031412 | 73 | 74 | 0.0 | 0.0 | 0.00 | 0.00 | 0.00 | 92 | 1016.0 |
| 20260510030907 | 73 | 74 | 0.0 | 0.0 | 0.00 | 0.00 | 0.00 | 92 | 1016.3 |
| 20260510030403 | 73 | 74 | 0.0 | 0.0 | 0.00 | 0.00 | 0.00 | 92 | 1016.4 |
| 20260510025901 | 73 | 74 | 0.0 | 0.0 | 0.00 | 0.00 | 0.00 | 92 | 1016.2 |
| 20260510025359 | 73 | 74 | 0.0 | 0.0 | 0.00 | 0.00 | 0.00 | 91 | 1016.2 |
| 20260510024856 | 73 | 74 | 0.0 | 0.0 | 0.00 | 0.00 | 0.00 | 91 | 1016.0 |
| 20260510024352 | 73 | 74 | 0.0 | 0.0 | 0.00 | 0.00 | 0.00 | 91 | 1015.9 |
| 20260510023848 | 73 | 74 | 0.0 | 0.0 | 0.00 | 0.00 | 0.00 | 90 | 1016.0 |
| 20260510023344 | 73 | 74 | 0.0 | 0.0 | 0.00 | 0.00 | 0.00 | 90 | 1015.8 |
| 20260510022842 | 73 | 75 | 0.0 | 0.0 | 0.00 | 0.00 | 0.00 | 90 | 1015.8 |
| 20260510022341 | 73 | 75 | 0.0 | 0.0 | 0.00 | 0.00 | 0.00 | 90 | 1015.9 |
| 20260510021840 | 73 | 75 | 0.0 | 0.0 | 0.00 | 0.00 | 0.00 | 90 | 1015.9 |
| 20260510021339 | 73 | 75 | 0.0 | 0.0 | 0.00 | 0.00 | 0.00 | 89 | 1015.7 |
| 20260510020835 | 74 | 72 | 0.0 | 0.0 | 0.00 | 0.00 | 0.00 | 89 | 1015.8 |
| 20260510020335 | 74 | 71 | 0.0 | 0.0 | 0.00 | 0.00 | 0.00 | 88 | 1015.5 |
| 20260510015831 | 74 | 71 | 0.0 | 0.0 | 0.00 | 0.00 | 0.00 | 88 | 1015.8 |
| 20260510015327 | 75 | 71 | 0.0 | 0.0 | 0.00 | 0.00 | 0.00 | 88 | 1015.8 |
| 20260510014822 | 75 | 71 | 0.0 | 0.0 | 0.00 | 0.00 | 0.00 | 87 | 1015.7 |
| 20260510014320 | 75 | 69 | 0.0 | 0.0 | 0.00 | 0.00 | 0.00 | 87 | 1015.7 |
| 20260510013815 | 75 | 69 | 0.0 | 0.0 | 0.00 | 0.00 | 0.00 | 87 | 1015.8 |
| 20260510013312 | 75 | 75 | 0.0 | 0.0 | 0.00 | 0.00 | 0.00 | 86 | 1015.5 |
| 20260510012806 | 75 | 63 | 0.0 | 0.9 | 0.00 | 0.00 | 0.00 | 86 | 1015.4 |
| 20260510012300 | 75 | 62 | 0.9 | 1.7 | 0.00 | 0.00 | 0.00 | 86 | 1015.5 |
| 20260510011755 | 76 | 61 | 0.0 | 0.0 | 0.00 | 0.00 | 0.00 | 86 | 1015.5 |
| 20260510011251 | 76 | 61 | 0.9 | 1.7 | 0.00 | 0.00 | 0.00 | 86 | 1015.5 |
| 20260510010748 | 76 | 48 | 1.7 | 1.7 | 0.00 | 0.00 | 0.00 | 85 | 1015.2 |
| 20260510010244 | 76 | 58 | 0.9 | 0.9 | 0.00 | 0.00 | 0.00 | 85 | 1015.2 |
| 20260510005742 | 76 | 61 | 0.0 | 0.0 | 0.00 | 0.00 | 0.00 | 85 | 1015.4 |
| 20260510005238 | 76 | 60 | 0.9 | 0.9 | 0.00 | 0.00 | 0.00 | 85 | 1015.1 |
| 20260510004736 | 76 | 58 | 0.0 | 0.0 | 0.00 | 0.00 | 0.00 | 85 | 1015.1 |
| 20260510004233 | 76 | 68 | 2.6 | 4.3 | 0.00 | 0.00 | 0.00 | 85 | 1014.9 |
| 20260510003731 | 76 | 54 | 0.9 | 0.9 | 0.00 | 0.00 | 0.00 | 85 | 1014.9 |
| 20260510003227 | 76 | 58 | 0.0 | 0.9 | 0.00 | 0.00 | 0.00 | 86 | 1014.7 |
| 20260510002725 | 76 | 59 | 0.0 | 0.9 | 0.00 | 0.00 | 0.00 | 85 | 1014.9 |
| 20260510002223 | 76 | 36 | 0.9 | 1.7 | 0.00 | 0.00 | 0.00 | 85 | 1014.7 |
| 20260510001720 | 76 | 50 | 0.9 | 1.7 | 0.00 | 0.00 | 0.00 | 84 | 1014.7 |
| 20260510001219 | 77 | 53 | 1.7 | 2.6 | 0.00 | 0.00 | 0.00 | 84 | 1014.6 |
| 20260510000714 | 77 | 59 | 0.9 | 0.9 | 0.00 | 0.00 | 0.00 | 84 | 1014.7 |
| 20260510000212 | 77 | 36 | 0.9 | 1.7 | 0.00 | 0.00 | 0.00 | 85 | 1014.6 |
| 20260509235708 | 77 | 29 | 5.2 | 7.0 | 0.00 | 0.00 | 0.00 | 85 | 1014.6 |
| 20260509235204 | 78 | 62 | 0.0 | 0.9 | 0.00 | 0.00 | 0.00 | 86 | 1014.4 |
| 20260509234701 | 78 | 51 | 0.9 | 1.7 | 0.00 | 0.00 | 0.00 | 87 | 1014.4 |
| 20260509234158 | 78 | 57 | 0.0 | 0.0 | 0.00 | 0.00 | 0.00 | 87 | 1014.0 |
| 20260509233656 | 79 | 61 | 1.7 | 1.7 | 0.00 | 0.00 | 0.00 | 88 | 1014.2 |
| 20260509233153 | 79 | 23 | 4.3 | 5.2 | 0.00 | 0.00 | 0.00 | 88 | 1013.9 |
| 20260509232649 | 79 | 29 | 5.2 | 11.3 | 0.00 | 0.00 | 0.00 | 88 | 1014.0 |
| 20260509232146 | 80 | 6 | 3.5 | 5.2 | 0.00 | 0.00 | 0.00 | 87 | 1014.0 |
| 20260509231643 | 80 | 24 | 5.2 | 7.0 | 0.00 | 0.00 | 0.00 | 86 | 1014.2 |
| 20260509231140 | 81 | 30 | 4.3 | 6.1 | 0.00 | 0.00 | 0.00 | 83 | 1013.9 |
| 20260509230637 | 81 | 41 | 3.5 | 6.1 | 0.00 | 0.00 | 0.00 | 82 | 1013.7 |
| 20260509230134 | 81 | 58 | 0.0 | 0.9 | 0.00 | 0.00 | 0.00 | 82 | 1013.8 |
| 20260509225630 | 82 | 43 | 2.6 | 2.6 | 0.00 | 0.00 | 0.00 | 81 | 1013.8 |
| 20260509225125 | 82 | 47 | 0.9 | 0.9 | 0.00 | 0.00 | 0.00 | 79 | 1013.6 |
| 20260509224621 | 83 | 45 | 0.9 | 1.7 | 0.00 | 0.00 | 0.00 | 76 | 1013.5 |
| 20260509224118 | 83 | 57 | 0.9 | 1.7 | 0.00 | 0.00 | 0.00 | 74 | 1013.5 |
| 20260509223615 | 83 | 33 | 3.5 | 6.1 | 0.00 | 0.00 | 0.00 | 74 | 1013.6 |
| 20260509223113 | 83 | 50 | 1.7 | 2.6 | 0.00 | 0.00 | 0.00 | 74 | 1013.3 |
| 20260509222608 | 84 | 64 | 0.9 | 0.9 | 0.00 | 0.00 | 0.00 | 73 | 1013.3 |
| 20260509222105 | 84 | 52 | 1.7 | 1.7 | 0.00 | 0.00 | 0.00 | 74 | 1013.3 |
| 20260509221600 | 84 | 54 | 1.7 | 2.6 | 0.00 | 0.00 | 0.00 | 73 | 1013.3 |
| 20260509221056 | 85 | 54 | 0.9 | 1.7 | 0.00 | 0.00 | 0.00 | 72 | 1013.1 |
| 20260509220552 | 86 | 45 | 4.3 | 6.1 | 0.00 | 0.00 | 0.00 | 70 | 1013.3 |
| 20260509220049 | 87 | 61 | 0.0 | 0.9 | 0.00 | 0.00 | 0.00 | 66 | 1013.0 |
| 20260509215544 | 88 | 60 | 0.0 | 0.9 | 0.00 | 0.00 | 0.00 | 61 | 1013.0 |
| 20260509215042 | 88 | 62 | 0.9 | 0.9 | 0.00 | 0.00 | 0.00 | 60 | 1013.0 |
| 20260509214539 | 89 | 199 | 1.7 | 4.3 | 0.00 | 0.00 | 0.00 | 60 | 1012.9 |
| 20260509214036 | 89 | 45 | 1.7 | 2.6 | 0.00 | 0.00 | 0.00 | 59 | 1012.7 |
| 20260509213532 | 89 | 59 | 0.9 | 1.7 | 0.00 | 0.00 | 0.00 | 59 | 1012.7 |
| 20260509213029 | 90 | 64 | 0.9 | 0.9 | 0.00 | 0.00 | 0.00 | 57 | 1012.7 |
| 20260509212526 | 90 | 39 | 1.7 | 1.7 | 0.00 | 0.00 | 0.00 | 57 | 1012.4 |
| 20260509212023 | 90 | 39 | 2.6 | 2.6 | 0.00 | 0.00 | 0.00 | 57 | 1012.6 |
| 20260509211518 | 90 | 264 | 3.5 | 4.3 | 0.00 | 0.00 | 0.00 | 58 | 1012.6 |
| 20260509211016 | 90 | 306 | 3.5 | 4.3 | 0.00 | 0.00 | 0.00 | 58 | 1012.5 |
| 20260509210512 | 90 | 28 | 0.9 | 0.9 | 0.00 | 0.00 | 0.00 | 58 | 1012.6 |
| 20260509210009 | 89 | 33 | 1.7 | 1.7 | 0.00 | 0.00 | 0.00 | 60 | 1012.6 |
| 20260509205503 | 89 | 194 | 4.3 | 5.2 | 0.00 | 0.00 | 0.00 | 60 | 1012.6 |
| 20260509204958 | 89 | 23 | 1.7 | 1.7 | 0.00 | 0.00 | 0.00 | 59 | 1012.7 |
| 20260509204455 | 89 | 56 | 0.9 | 1.7 | 0.00 | 0.00 | 0.00 | 60 | 1012.6 |
| 20260509203951 | 89 | 251 | 3.5 | 4.3 | 0.00 | 0.00 | 0.00 | 60 | 1012.5 |
| 20260509203447 | 88 | 288 | 3.5 | 4.3 | 0.00 | 0.00 | 0.00 | 62 | 1012.7 |
| 20260509202945 | 89 | 357 | 1.7 | 2.6 | 0.00 | 0.00 | 0.00 | 61 | 1012.7 |
| 20260509202441 | 89 | 3 | 0.9 | 1.7 | 0.00 | 0.00 | 0.00 | 63 | 1012.5 |
| 20260509201936 | 87 | 58 | 0.0 | 0.9 | 0.00 | 0.00 | 0.00 | 65 | 1012.6 |
| 20260509201431 | 87 | 34 | 1.7 | 1.7 | 0.00 | 0.00 | 0.00 | 65 | 1012.7 |
| 20260509200929 | 86 | 18 | 1.7 | 1.7 | 0.00 | 0.00 | 0.00 | 65 | 1012.8 |
| 20260509200429 | 87 | 89 | 0.9 | 1.7 | 0.00 | 0.00 | 0.00 | 65 | 1012.8 |
| 20260509195926 | 86 | 75 | 0.9 | 0.9 | 0.00 | 0.00 | 0.00 | 66 | 1012.8 |
| 20260509195422 | 85 | 53 | 1.7 | 1.7 | 0.00 | 0.00 | 0.00 | 66 | 1012.8 |
| 20260509194921 | 85 | 62 | 0.9 | 0.9 | 0.00 | 0.00 | 0.00 | 68 | 1012.9 |
| 20260509194417 | 85 | 117 | 2.6 | 2.6 | 0.00 | 0.00 | 0.00 | 67 | 1012.9 |